When you browse on this site, cookies collect data to enhance your experience and personalize the content and advertising you see.
Visit our Privacy Policy to learn more. By continuing to use the site, you agree to this use of cookies and data.

Hourly Weather Pardubice

Today, 28 September, Monday

Time Temperature Precipitation Wind Pressure Humidity
00:00 +8°C° 0 mm 2 mps 738 mmHg 84%
01:00 +7°C° 0 mm 2 mps 738 mmHg 86%
02:00 +7°C° 0 mm 2 mps 738 mmHg 85%
03:00 +7°C° 0 mm 2 mps 738 mmHg 85%
04:00 +8°C° 0 mm 1 mps 738 mmHg 84%
05:00 +9°C° 0.1 mm 1 mps 738 mmHg 83%
06:00 +9°C° 0.1 mm 1 mps 738 mmHg 82%
07:00 +10°C° 0 mm 1 mps 738 mmHg 81%
08:00 +10°C° 0.5 mm 1 mps 738 mmHg 83%
09:00 +10°C° 0.5 mm 1 mps 738 mmHg 86%
10:00 +9°C° 0.5 mm 2 mps 738 mmHg 89%
11:00 +10°C° 0.4 mm 1 mps 738 mmHg 89%
12:00 +10°C° 0.4 mm 1 mps 738 mmHg 90%
13:00 +11°C° 0.4 mm 1 mps 738 mmHg 90%
14:00 +11°C° 0.1 mm 1 mps 739 mmHg 90%
15:00 +11°C° 0.1 mm 1 mps 739 mmHg 89%
16:00 +11°C° 0.1 mm 1 mps 739 mmHg 89%
17:00 +11°C° 0.2 mm 1 mps 739 mmHg 91%
18:00 +11°C° 0.2 mm 1 mps 739 mmHg 92%
19:00 +10°C° 0.2 mm 1 mps 739 mmHg 94%
20:00 +10°C° 0 mm 1 mps 739 mmHg 95%
21:00 +9°C° 0 mm 2 mps 739 mmHg 95%
22:00 +9°C° 0 mm 2 mps 740 mmHg 96%
23:00 +9°C° 0 mm 2 mps 740 mmHg 96%

Tomorrow, 29 September, Tuesday

Time Temperature Precipitation Wind Pressure Humidity
00:00 +9°C° 0 mm 2 mps 740 mmHg 96%
01:00 +9°C° 0 mm 2 mps 740 mmHg 96%
02:00 +9°C° 0.2 mm 2 mps 740 mmHg 96%
03:00 +9°C° 0.2 mm 2 mps 740 mmHg 95%
04:00 +9°C° 0.2 mm 2 mps 740 mmHg 95%
05:00 +9°C° 0.2 mm 3 mps 740 mmHg 95%
06:00 +9°C° 0.2 mm 3 mps 740 mmHg 94%
07:00 +9°C° 0.2 mm 3 mps 740 mmHg 93%
08:00 +9°C° 0.4 mm 3 mps 741 mmHg 93%
09:00 +9°C° 0.4 mm 3 mps 741 mmHg 93%
10:00 +9°C° 0.4 mm 3 mps 741 mmHg 93%
11:00 +10°C° 0.2 mm 3 mps 741 mmHg 93%
12:00 +10°C° 0.2 mm 3 mps 741 mmHg 93%
13:00 +10°C° 0.2 mm 3 mps 741 mmHg 93%
14:00 +10°C° 0.2 mm 3 mps 741 mmHg 93%
15:00 +12°C° 0.2 mm 2 mps 741 mmHg 93%
16:00 +12°C° 0.2 mm 2 mps 741 mmHg 93%
17:00 +12°C° 0.1 mm 2 mps 741 mmHg 94%
18:00 +10°C° 0.1 mm 2 mps 741 mmHg 95%
19:00 +10°C° 0.1 mm 2 mps 741 mmHg 95%
20:00 +10°C° 0 mm 2 mps 742 mmHg 95%
21:00 +10°C° 0 mm 2 mps 742 mmHg 95%
22:00 +10°C° 0 mm 2 mps 742 mmHg 95%
23:00 +10°C° 0.1 mm 2 mps 742 mmHg 95%

Day after tomorrow, 30 September, Wednesday

Time Temperature Precipitation Wind Pressure Humidity
00:00 +10°C° 0.1 mm 2 mps 742 mmHg 95%
01:00 +10°C° 0.1 mm 2 mps 742 mmHg 95%
02:00 +10°C° 0.1 mm 2 mps 741 mmHg 94%
03:00 +10°C° 0.1 mm 2 mps 741 mmHg 93%
04:00 +10°C° 0.1 mm 3 mps 741 mmHg 93%
05:00 +10°C° 0.1 mm 3 mps 741 mmHg 92%
06:00 +10°C° 0.1 mm 3 mps 741 mmHg 92%
07:00 +10°C° 0.1 mm 3 mps 741 mmHg 92%
08:00 +10°C° 0.1 mm 3 mps 741 mmHg 92%
09:00 +10°C° 0.1 mm 2 mps 741 mmHg 92%
10:00 +12°C° 0.1 mm 2 mps 741 mmHg 91%
11:00 +12°C° 0.1 mm 2 mps 741 mmHg 91%
12:00 +13°C° 0.1 mm 2 mps 740 mmHg 90%
13:00 +13°C° 0.1 mm 2 mps 740 mmHg 89%
14:00 +13°C° 0 mm 2 mps 740 mmHg 88%
15:00 +14°C° 0 mm 2 mps 740 mmHg 87%
16:00 +14°C° 0 mm 2 mps 739 mmHg 85%
17:00 +14°C° 0 mm 2 mps 739 mmHg 87%
18:00 +13°C° 0 mm 2 mps 739 mmHg 90%
19:00 +12°C° 0 mm 1 mps 739 mmHg 92%
20:00 +13°C° 0 mm 1 mps 739 mmHg 92%
21:00 +13°C° 0 mm 2 mps 739 mmHg 91%
22:00 +13°C° 0 mm 2 mps 739 mmHg 91%
23:00 +13°C° 0 mm 2 mps 738 mmHg 91%

1 October, Thursday

Time Temperature Precipitation Wind Pressure Humidity
00:00 +13°C° 0 mm 2 mps 738 mmHg 91%
01:00 +12°C° 0 mm 2 mps 738 mmHg 91%
02:00 +12°C° 0 mm 2 mps 737 mmHg 91%
03:00 +12°C° 0 mm 2 mps 737 mmHg 91%
04:00 +12°C° 0 mm 1 mps 737 mmHg 91%
05:00 +12°C° 0 mm 1 mps 737 mmHg 91%
06:00 +12°C° 0 mm 1 mps 737 mmHg 91%
07:00 +12°C° 0 mm 1 mps 736 mmHg 91%
08:00 +13°C° 0 mm 1 mps 736 mmHg 88%
09:00 +14°C° 0 mm 1 mps 736 mmHg 84%
10:00 +15°C° 0 mm 1 mps 736 mmHg 80%
11:00 +16°C° 0 mm 1 mps 735 mmHg 77%
12:00 +18°C° 0 mm 1 mps 735 mmHg 74%
13:00 +19°C° 0 mm 1 mps 735 mmHg 71%
14:00 +19°C° 0 mm 1 mps 734 mmHg 72%
15:00 +19°C° 0 mm 1 mps 734 mmHg 73%
16:00 +19°C° 0 mm 1 mps 734 mmHg 74%
17:00 +18°C° 0 mm 1 mps 734 mmHg 77%
18:00 +16°C° 0 mm 1 mps 734 mmHg 80%
19:00 +15°C° 0 mm 1 mps 735 mmHg 84%
20:00 +14°C° 0 mm 1 mps 735 mmHg 83%
21:00 +14°C° 0 mm 1 mps 735 mmHg 83%
22:00 +14°C° 0 mm 1 mps 735 mmHg 83%
23:00 +14°C° 0 mm 1 mps 735 mmHg 85%

2 October, Friday

Time Temperature Precipitation Wind Pressure Humidity
00:00 +12°C° 0 mm 0 mps 734 mmHg 86%
01:00 +12°C° 0 mm 0 mps 734 mmHg 88%
02:00 +11°C° 0 mm 0 mps 734 mmHg 89%
03:00 +12°C° 0 mm 1 mps 734 mmHg 90%
04:00 +12°C° 0 mm 1 mps 734 mmHg 91%
05:00 +12°C° 0 mm 1 mps 734 mmHg 90%
06:00 +12°C° 0 mm 1 mps 734 mmHg 89%
07:00 +12°C° 0 mm 1 mps 735 mmHg 89%
08:00 +14°C° 0 mm 1 mps 735 mmHg 83%
09:00 +16°C° 0 mm 2 mps 735 mmHg 76%
10:00 +17°C° 0 mm 2 mps 735 mmHg 70%
11:00 +18°C° 0 mm 3 mps 734 mmHg 68%
12:00 +19°C° 0 mm 3 mps 734 mmHg 67%
13:00 +19°C° 0 mm 4 mps 734 mmHg 65%
14:00 +19°C° 0 mm 4 mps 734 mmHg 68%
15:00 +18°C° 0 mm 4 mps 734 mmHg 70%
16:00 +18°C° 0 mm 4 mps 733 mmHg 72%
17:00 +15°C° 0 mm 4 mps 733 mmHg 77%
18:00 +14°C° 0 mm 4 mps 733 mmHg 82%
19:00 +13°C° 0 mm 4 mps 733 mmHg 87%
20:00 +13°C° 0 mm 4 mps 733 mmHg 87%
21:00 +13°C° 0 mm 4 mps 733 mmHg 86%
22:00 +13°C° 0 mm 4 mps 733 mmHg 86%
23:00 +14°C° 0 mm 5 mps 733 mmHg 85%

3 October, Saturday

Time Temperature Precipitation Wind Pressure Humidity
00:00 +14°C° 0 mm 5 mps 733 mmHg 84%
01:00 +14°C° 0 mm 5 mps 732 mmHg 82%
02:00 +14°C° 0 mm 5 mps 732 mmHg 83%
03:00 +14°C° 0 mm 5 mps 732 mmHg 83%
04:00 +14°C° 0 mm 5 mps 731 mmHg 83%
05:00 +14°C° 0 mm 5 mps 731 mmHg 84%
06:00 +14°C° 0 mm 5 mps 731 mmHg 85%
07:00 +14°C° 0 mm 5 mps 731 mmHg 86%
08:00 +15°C° 0 mm 6 mps 731 mmHg 82%
09:00 +17°C° 0 mm 6 mps 731 mmHg 77%
10:00 +18°C° 0 mm 7 mps 731 mmHg 73%
11:00 +20°C° 0 mm 7 mps 731 mmHg 71%
12:00 +20°C° 0 mm 6 mps 731 mmHg 69%
13:00 +21°C° 0 mm 6 mps 731 mmHg 68%
14:00 +21°C° 0 mm 5 mps 731 mmHg 68%
15:00 +22°C° 0 mm 5 mps 731 mmHg 68%
16:00 +22°C° 0 mm 4 mps 731 mmHg 68%
17:00 +21°C° 0 mm 4 mps 731 mmHg 73%
18:00 +19°C° 0 mm 4 mps 731 mmHg 78%
19:00 +18°C° 0 mm 4 mps 731 mmHg 83%
20:00 +18°C° 0 mm 4 mps 731 mmHg 83%
21:00 +17°C° 0 mm 5 mps 731 mmHg 82%
22:00 +17°C° 0 mm 5 mps 731 mmHg 81%
23:00 +16°C° 0 mm 5 mps 731 mmHg 81%
Show more